Content
SEND FEEDBACK

Daily
Averages
Monthly
Summary
United States of America

WINDSOR, COLORADO


Home > North America > United States > Colorado
Elevation: 4809 feet     Latitude: 40 29N     Longitude: 104 54W

WEATHER
 
SELECT A DAY
Number of Records: 447,120;   Date Range: 1/1/95 - 9/18/14
 
SHARE

PRINT THIS DATA

[ ← Previous Day ]
WEATHER ALMANAC - FEBRUARY 5, 2013
[ Next Day → ]
[ °C ]   °F
Weather ElementAverageHighLow
Temperature39.1 °F57.2 °F (3:15 pm)21.2 °F (2:15 am)
Dewpoint17.4 °F21.2 °F (11:35 am)8.6 °F (2:15 am)
Humidity44.2 %69 % (3:15 am)25 % (1:35 pm)
Barometer29.94 in30.07 in (10:55 am)29.85 in (10:35 pm)
Wind Speed6.3 mph13.8 mph (10:15 am)
Wind Gust16.1 mph (12:35 pm)
Weather ElementAverage
Visibility10 mi
Wind DirectionSSE (149.7 °)

Weather ElementTotal
Precipitation---
Heating Degree Days25.8 (Base 65)
Averaged from 67 records on February 5, 2013
WEATHER CONDITIONS BREAKOUT
WIND DIRECTION BREAKOUT
WEATHER BY HOUR - FEBRUARY 5, 2013
[ °C ]   °F
Local TimeTemperatureDewpointHumidityBarometerVisibilityWind DirectionWind SpeedGust SpeedPrecipitationEventsConditions
12:55 AM28.4 °F12.2 °F51 %29.91 in10.0 miCalmClear
1:15 AM32.0 °F12.2 °F44 %29.91 in10.0 miSSE (150°)3.5 mphClear
1:35 AM28.4 °F10.4 °F47 %29.91 in10.0 miENE (70°)9.2 mphClear
1:55 AM30.2 °F14.0 °F51 %29.92 in10.0 miCalmClear
2:15 AM21.2 °F8.6 °F58 %29.94 in10.0 miNorth (360°)9.2 mphClear
2:35 AM24.8 °F12.2 °F59 %29.94 in10.0 miNorth (10°)3.5 mphClear
2:55 AM26.6 °F14.0 °F59 %29.95 in10.0 miNorth (10°)6.9 mphClear
3:15 AM24.8 °F15.8 °F69 %29.94 in10.0 miCalmClear
3:35 AM24.8 °F15.8 °F69 %29.94 in10.0 miCalmClear
3:55 AM26.6 °F12.2 °F55 %29.95 in10.0 miCalmClear
4:15 AM24.8 °F10.4 °F54 %29.96 in10.0 miCalmClear
4:35 AM24.8 °F10.4 °F54 %29.97 in10.0 miNE (40°)5.8 mphClear
4:55 AM23.0 °F12.2 °F63 %29.98 in10.0 miWNW (300°)5.8 mphClear
5:15 AM21.2 °F12.2 °F68 %29.99 in10.0 miNorth (350°)4.6 mphClear
5:35 AM24.8 °F15.8 °F69 %29.99 in10.0 miCalmClear
5:55 AM24.8 °F15.8 °F69 %29.99 in10.0 miCalmClear
6:15 AM24.8 °F14.0 °F64 %30.00 in10.0 miCalmClear
6:35 AM21.2 °F12.2 °F68 %30.00 in10.0 miWest (270°)5.8 mphClear
6:55 AM24.8 °F14.0 °F64 %30.01 in10.0 miWNW (300°)3.5 mphClear
7:15 AM28.4 °F15.8 °F59 %30.02 in10.0 miSouth (170°)4.6 mphClear
7:35 AM21.2 °F10.4 °F63 %30.02 in10.0 miSouth (190°)6.9 mphClear
7:55 AM24.8 °F15.8 °F69 %30.03 in10.0 miSSW (200°)5.8 mphClear
8:15 AM30.2 °F17.6 °F60 %30.03 in10.0 miSouth (190°)6.9 mphClear
8:35 AM33.8 °F19.4 °F56 %30.03 in10.0 miSouth (190°)6.9 mphClear
8:55 AM37.4 °F17.6 °F45 %30.04 in10.0 miSSW (210°)5.8 mphClear
9:15 AM42.8 °F19.4 °F39 %30.03 in10.0 miSouth (190°)11.5 mphClear
9:35 AM44.6 °F17.6 °F34 %30.05 in10.0 miSSE (160°)11.5 mphClear
10:15 AM44.6 °F19.4 °F37 %30.06 in10.0 miESE (120°)13.8 mphClear
10:35 AM42.8 °F19.4 °F39 %30.06 in10.0 miSE (130°)10.4 mphClear
10:55 AM44.6 °F19.4 °F37 %30.07 in10.0 miSE (140°)8.1 mphClear
11:15 AM46.4 °F19.4 °F34 %30.05 in10.0 miSE (130°)10.4 mphClear
11:35 AM46.4 °F21.2 °F37 %30.04 in10.0 miSouth (170°)10.4 mphClear
11:55 AM48.2 °F21.2 °F34 %30.03 in10.0 miSSE (150°)9.2 mphClear
12:15 PM48.2 °F21.2 °F34 %30.01 in10.0 miSE (130°)10.4 mphClear
12:35 PM50.0 °F21.2 °F32 %29.99 in10.0 miSSE (160°)9.2 mph16.1 mphClear
12:55 PM53.6 °F21.2 °F28 %29.97 in10.0 miESE (120°)10.4 mphClear
1:15 PM53.6 °F19.4 °F26 %29.96 in10.0 miSSE (150°)9.2 mphClear
1:35 PM55.4 °F19.4 °F25 %29.94 in10.0 miSouth (170°)13.8 mphClear
1:55 PM55.4 °F21.2 °F26 %29.93 in10.0 miSE (130°)5.8 mphClear
2:15 PM55.4 °F19.4 °F25 %29.92 in10.0 miSouth (190°)6.9 mphClear
2:35 PM55.4 °F19.4 °F25 %29.92 in10.0 miSouth (170°)6.9 mphClear
2:55 PM55.4 °F21.2 °F26 %29.91 in10.0 miSouth (180°)4.6 mphClear
3:15 PM57.2 °F21.2 °F25 %29.91 in10.0 miSouth (180°)6.9 mphClear
3:35 PM55.4 °F19.4 °F25 %29.91 in10.0 miSW (230°)5.8 mphClear
3:55 PM55.4 °F19.4 °F25 %29.90 in10.0 miWSW (250°)3.5 mphClear
4:35 PM51.8 °F19.4 °F28 %29.89 in10.0 miCalmClear
4:55 PM53.6 °F19.4 °F26 %29.89 in10.0 miNorth (10°)4.6 mphClear
5:15 PM51.8 °F19.4 °F28 %29.88 in10.0 miNNE (20°)5.8 mphClear
5:35 PM48.2 °F19.4 °F32 %29.88 in10.0 miNE (40°)6.9 mphClear
5:55 PM48.2 °F19.4 °F32 %29.88 in10.0 miNNE (30°)9.2 mphClear
6:15 PM46.4 °F19.4 °F34 %29.88 in10.0 miNorth (350°)6.9 mphClear
6:35 PM42.8 °F19.4 °F39 %29.88 in10.0 miNorth (360°)8.1 mphClear
6:55 PM42.8 °F19.4 °F39 %29.89 in10.0 miNorth (350°)9.2 mphClear
7:15 PM42.8 °F19.4 °F39 %29.89 in10.0 miNorth (350°)8.1 mphClear
7:35 PM42.8 °F19.4 °F39 %29.88 in10.0 miNorth (360°)6.9 mphClear
7:55 PM42.8 °F19.4 °F39 %29.88 in10.0 miNorth (10°)5.8 mphClear
8:15 PM42.8 °F19.4 °F39 %29.87 in10.0 miNorth (360°)6.9 mphClear
8:35 PM42.8 °F19.4 °F39 %29.87 in10.0 miNNW (340°)9.2 mphClear
8:55 PM39.2 °F19.4 °F45 %29.87 in10.0 miNorth (350°)5.8 mphClear
9:15 PM39.2 °F19.4 °F45 %29.87 in10.0 miNorth (360°)6.9 mphClear
9:35 PM39.2 °F19.4 °F45 %29.86 in10.0 miNorth (10°)4.6 mphClear
9:55 PM39.2 °F19.4 °F45 %29.86 in10.0 miNorth (350°)6.9 mphClear
10:35 PM41.0 °F19.4 °F42 %29.85 in10.0 miNorth (10°)9.2 mphClear
10:55 PM39.2 °F19.4 °F45 %29.85 in10.0 miNNE (20°)3.5 mphClear
11:15 PM39.2 °F19.4 °F45 %29.85 in10.0 miNNE (20°)6.9 mphClear
11:35 PM37.4 °F19.4 °F48 %29.85 in10.0 miNE (40°)8.1 mphClear
11:55 PM37.4 °F19.4 °F48 %29.85 in10.0 miNNE (30°)8.1 mphClear
Hourly data recorded from KFNL, located miles away from Windsor, Colorado







STORIES FROM OUR PARTNERS